FW5817 Weather Reports


Display with metric or nautical units.
time (UTC)temp
F
wind
direction
speed
MPH
gust
MPH
rain 1hr
in
rain 24hr
in
rain mn
in
humidity
%
barometer
mb
20260504173007 68 209 6.0 14.0 0.00 0.00 0.00 44 1009.8
20260504172504 68 200 6.0 14.0 0.00 0.00 0.00 45 1010.0
20260504172002 68 318 3.0 13.0 0.00 0.00 0.00 44 1009.9
20260504171510 68 145 3.0 18.0 0.00 0.00 0.00 45 1009.9
20260504171006 67 215 7.0 18.0 0.00 0.00 0.00 46 1010.0
20260504170507 67 149 6.0 15.0 0.00 0.00 0.00 46 1010.1
20260504151005 62 186 3.0 9.0 0.00 0.00 0.00 48 1011.8
20260504150504 62 207 4.0 9.0 0.00 0.00 0.00 48 1011.9
20260504141009 59 202 3.0 20.0 0.00 0.00 0.00 48 1012.0
20260504140504 59 219 9.0 19.0 0.00 0.00 0.00 46 1012.0
20260504130507 54 216 3.0 8.0 0.00 0.00 0.00 53 1012.4
20260504110508 47 196 0.0 0.0 0.00 0.00 0.00 61 1012.5
20260504100507 45 196 0.0 2.0 0.00 0.00 0.00 62 1012.8
20260504082004 45 196 0.0 2.0 0.00 0.00 0.00 62 1012.9
20260504081508 45 196 0.0 2.0 0.00 0.00 0.00 62 1012.9
20260504081003 45 196 0.0 2.0 0.00 0.00 0.00 62 1013.0
20260504080506 45 196 0.0 1.0 0.00 0.00 0.00 62 1013.0
20260504050508 45 239 0.0 0.0 0.00 0.00 0.00 62 1013.2
20260504045508 45 239 0.0 0.0 0.00 0.00 0.00 62 1013.2
20260504045008 45 239 0.0 0.0 0.00 0.00 0.00 62 1013.1
20260504044513 45 239 0.0 0.0 0.00 0.00 0.00 62 1013.3
20260504044005 45 239 0.0 0.0 0.00 0.00 0.00 62 1013.2
20260504043507 45 239 0.0 0.0 0.00 0.00 0.00 62 1013.3
20260504043022 45 239 0.0 0.0 0.00 0.00 0.00 62 1013.3
20260504042508 45 239 0.0 0.0 0.00 0.00 0.00 61 1013.3
20260504042008 45 239 0.0 0.0 0.00 0.00 0.00 62 1013.2
20260504041519 45 239 0.0 0.0 0.00 0.00 0.00 62 1013.2
20260504041007 45 239 0.0 0.0 0.00 0.00 0.00 62 1013.2
20260504040508 45 239 0.0 0.0 0.00 0.00 0.00 62 1013.2
20260504040029 46 239 0.0 0.0 0.00 0.00 0.00 62 1013.2
20260504035508 46 239 0.0 0.0 0.00 0.00 0.00 61 1013.3
20260504035009 46 239 0.0 0.0 0.00 0.00 0.00 61 1013.1
20260504034526 46 239 0.0 0.0 0.00 0.00 0.00 61 1013.0
20260504034008 46 239 0.0 0.0 0.00 0.00 0.00 61 1013.0
20260504033504 46 239 0.0 0.0 0.00 0.00 0.00 60 1012.9
20260504033013 46 239 0.0 0.0 0.00 0.00 0.00 59 1012.9
20260504032507 46 239 0.0 0.0 0.00 0.00 0.00 60 1012.9
20260504032010 47 239 0.0 0.0 0.00 0.00 0.00 61 1013.0
20260504031518 47 239 0.0 0.0 0.00 0.00 0.00 60 1012.9
20260504031008 47 239 0.0 0.0 0.00 0.00 0.00 59 1012.8
20260504030508 47 239 0.0 0.0 0.00 0.00 0.00 59 1012.8
20260504030024 48 239 0.0 0.0 0.00 0.00 0.00 58 1012.8
20260504025507 48 239 0.0 0.0 0.00 0.00 0.00 57 1012.8
20260504025013 48 239 0.0 0.0 0.00 0.00 0.00 57 1012.9
20260504024526 48 239 0.0 0.0 0.00 0.00 0.00 57 1012.9
20260504024008 48 239 0.0 0.0 0.00 0.00 0.00 57 1012.9
20260504023509 48 239 0.0 0.0 0.00 0.00 0.00 56 1012.9
20260504023028 49 239 0.0 0.0 0.00 0.00 0.00 56 1012.9
20260504022511 49 239 0.0 0.0 0.00 0.00 0.00 55 1012.9
20260504022005 49 239 0.0 0.0 0.00 0.00 0.00 55 1012.9
20260504021513 49 239 0.0 0.0 0.00 0.00 0.00 54 1012.9
20260504021008 49 239 0.0 0.0 0.00 0.00 0.00 54 1012.9
20260504020508 50 239 0.0 0.0 0.00 0.00 0.00 53 1012.9
20260504020018 50 239 0.0 0.0 0.00 0.00 0.00 53 1013.0
20260504015509 51 239 0.0 0.0 0.00 0.00 0.00 51 1012.9
20260504015008 51 239 0.0 0.0 0.00 0.00 0.00 51 1012.9
20260504014524 51 239 0.0 2.0 0.00 0.00 0.00 51 1012.9
20260504014009 51 239 0.0 2.0 0.00 0.00 0.00 50 1012.9
20260504013508 51 239 0.0 3.0 0.00 0.00 0.00 50 1012.9
20260504013031 51 239 1.0 3.0 0.00 0.00 0.00 51 1012.9
20260504012516 51 240 0.0 3.0 0.00 0.00 0.00 50 1012.8
20260504012010 52 240 1.0 3.0 0.00 0.00 0.00 50 1012.7
20260504011528 52 241 1.0 2.0 0.00 0.00 0.00 49 1012.7
20260504011012 52 241 1.0 2.0 0.00 0.00 0.00 50 1012.6
20260504010507 52 242 1.0 2.0 0.00 0.00 0.00 49 1012.6
20260504010018 53 317 0.0 3.0 0.00 0.00 0.00 48 1012.6
20260504005508 53 318 0.0 3.0 0.00 0.00 0.00 47 1012.7
20260504005009 53 321 1.0 3.0 0.00 0.00 0.00 48 1012.7
20260504004520 53 300 0.0 3.0 0.00 0.00 0.00 48 1012.6
20260504004009 53 205 0.0 3.0 0.00 0.00 0.00 48 1012.5
20260504003509 53 204 0.0 3.0 0.00 0.00 0.00 48 1012.5
20260504003026 53 202 0.0 3.0 0.00 0.00 0.00 47 1012.5
20260504002508 54 203 1.0 3.0 0.00 0.00 0.00 47 1012.5
20260504002010 54 234 0.0 3.0 0.00 0.00 0.00 46 1012.4
20260504001528 54 236 1.0 4.0 0.00 0.00 0.00 45 1012.2
20260504001011 55 281 0.0 4.0 0.00 0.00 0.00 44 1012.1
20260504000514 55 238 0.0 4.0 0.00 0.00 0.00 45 1012.0
20260504000030 55 189 1.0 4.0 0.00 0.00 0.00 44 1012.0
20260503235507 55 285 1.0 4.0 0.00 0.00 0.00 44 1012.0
20260503235010 56 256 1.0 4.0 0.00 0.00 0.00 43 1012.0
20260503234523 56 294 0.0 6.0 0.00 0.00 0.00 44 1011.8
20260503234003 56 250 2.0 9.0 0.00 0.00 0.00 43 1011.8
20260503233505 57 279 4.0 9.0 0.00 0.00 0.00 42 1011.7
20260503233003 57 219 2.0 11.0 0.00 0.00 0.00 42 1011.7
20260503232504 57 267 1.0 11.0 0.00 0.00 0.00 41 1011.7
20260503232006 58 265 4.0 9.0 0.00 0.00 0.00 41 1011.8
20260503231511 58 344 2.0 8.0 0.00 0.00 0.00 41 1011.8
20260503231004 58 242 2.0 11.0 0.00 0.00 0.00 42 1011.8
20260503230504 58 284 3.0 11.0 0.00 0.00 0.00 41 1011.7
20260503230014 58 292 4.0 11.0 0.00 0.00 0.00 40 1011.6
20260503225506 58 263 2.0 13.0 0.00 0.00 0.00 42 1011.6
20260503225008 58 284 6.0 13.0 0.00 0.00 0.00 40 1011.6
20260503224517 58 285 6.0 13.0 0.00 0.00 0.00 40 1011.5
20260503224011 58 262 5.0 13.0 0.00 0.00 0.00 40 1011.5
20260503223511 59 290 6.0 12.0 0.00 0.00 0.00 40 1011.6
20260503223021 59 299 5.0 12.0 0.00 0.00 0.00 40 1011.6
20260503222504 59 309 2.0 9.0 0.00 0.00 0.00 40 1011.5
20260503222004 59 316 5.0 11.0 0.00 0.00 0.00 40 1011.6
20260503221505 58 278 6.0 16.0 0.00 0.00 0.00 40 1011.7
20260503221006 58 284 6.0 16.0 0.00 0.00 0.00 41 1011.6
20260503220506 58 272 5.0 17.0 0.00 0.00 0.00 40 1011.6
20260503220011 58 134 9.0 17.0 0.00 0.00 0.00 39 1011.6
20260503215506 59 261 5.0 15.0 0.00 0.00 0.00 41 1011.5
20260503215011 59 303 5.0 14.0 0.00 0.00 0.00 40 1011.6
20260503214516 58 307 4.0 12.0 0.00 0.00 0.00 40 1011.5
20260503214007 59 288 6.0 14.0 0.00 0.00 0.00 40 1011.5
20260503213508 59 274 4.0 14.0 0.00 0.00 0.00 41 1011.5
20260503213019 58 334 5.0 14.0 0.00 0.00 0.00 39 1011.5
20260503212509 59 322 5.0 14.0 0.00 0.00 0.00 40 1011.5
20260503212010 59 289 5.0 14.0 0.00 0.00 0.00 42 1011.5
20260503211504 59 290 6.0 14.0 0.00 0.00 0.00 40 1011.5
20260503211003 58 281 5.0 20.0 0.00 0.00 0.00 42 1011.4
20260503210506 58 271 8.0 20.0 0.00 0.00 0.00 39 1011.5
20260503210015 57 279 5.0 12.0 0.00 0.00 0.00 43 1011.5
20260503205504 57 273 4.0 15.0 0.00 0.00 0.00 41 1011.6
20260503205007 58 271 6.0 16.0 0.00 0.00 0.00 39 1011.6
20260503204514 58 278 7.0 23.0 0.00 0.00 0.00 40 1011.6
20260503204009 58 306 7.0 23.0 0.00 0.00 0.00 42 1011.6
20260503203508 57 278 9.0 15.0 0.00 0.00 0.00 41 1011.6
20260503203019 58 274 5.0 14.0 0.00 0.00 0.00 42 1011.8
20260503202510 58 276 4.0 15.0 0.00 0.00 0.00 41 1011.7
20260503202012 58 279 6.0 15.0 0.00 0.00 0.00 42 1011.8
20260503201524 58 234 7.0 15.0 0.00 0.00 0.00 40 1011.7
20260503201008 58 236 5.0 15.0 0.00 0.00 0.00 42 1011.9
20260503200504 58 295 6.0 17.0 0.00 0.00 0.00 43 1011.9
20260503200009 58 285 5.0 17.0 0.00 0.00 0.00 40 1011.9
20260503195503 58 316 7.0 17.0 0.00 0.00 0.00 42 1012.0
20260503195003 57 331 10.0 17.0 0.00 0.00 0.00 42 1012.0
20260503194513 57 292 9.0 16.0 0.00 0.00 0.00 40 1012.1
20260503194008 58 292 5.0 14.0 0.00 0.00 0.00 45 1012.2
20260503193508 58 288 7.0 14.0 0.00 0.00 0.00 42 1012.1
20260503193015 58 298 4.0 12.0 0.00 0.00 0.00 44 1012.2
20260503192508 57 352 4.0 16.0 0.00 0.00 0.00 44 1012.3
20260503192007 56 295 6.0 16.0 0.00 0.00 0.00 42 1012.4
20260503191519 56 337 6.0 18.0 0.00 0.00 0.00 45 1012.5
20260503191009 56 328 5.0 18.0 0.00 0.00 0.00 43 1012.5
20260503190510 57 313 7.0 18.0 0.00 0.00 0.00 43 1012.5
20260503190041 57 301 5.0 18.0 0.00 0.00 0.00 42 1012.5
20260503185511 57 315 9.0 18.0 0.00 0.00 0.00 44 1012.7
20260503185004 57 290 6.0 13.0 0.00 0.00 0.00 42 1012.7
20260503184510 57 338 4.0 14.0 0.00 0.00 0.00 42 1012.7
20260503184007 57 337 6.0 14.0 0.00 0.00 0.00 42 1012.8
20260503183508 57 298 3.0 17.0 0.00 0.00 0.00 43 1012.9
20260503183016 56 319 9.0 17.0 0.00 0.00 0.00 42 1013.0
20260503182508 56 299 8.0 13.0 0.00 0.00 0.00 44 1012.9
20260503182010 55 273 6.0 13.0 0.00 0.00 0.00 40 1012.9
20260503181517 55 274 5.0 15.0 0.00 0.00 0.00 42 1013.0
20260503181010 56 293 7.0 17.0 0.00 0.00 0.00 42 1013.0
20260503180509 56 304 3.0 17.0 0.00 0.00 0.00 43 1013.0
20260503180034 56 325 10.0 17.0 0.00 0.00 0.00 42 1013.0
20260503175509 56 310 5.0 12.0 0.00 0.00 0.00 41 1013.1
20260503175008 56 221 5.0 17.0 0.00 0.00 0.00 44 1013.2
20260503174527 56 308 5.0 17.0 0.00 0.00 0.00 47 1013.2
20260503174005 55 297 4.0 21.0 0.00 0.00 0.00 43 1013.2
20260503173504 55 344 8.0 21.0 0.00 0.00 0.00 47 1013.2